If you wish to contribute or participate in the discussions about articles you are invited to join SKYbrary as a registered user

 Actions

Fukushima Airport

From SKYbrary Wiki

RJSF /
Revision as of 21:42, 25 June 2020 by Admin (talk | contribs) (Text replacement - "===test===" to "")
Airport
ICAO: RJSF – IATA: FKS
Summary
Name Fukushima Airport
Region Asia and Pacific
Territory Japan JP.gif
Location Sukagawa, Fukushima Prefecture
Serving Sukagawa
Elevation 371.856 m <br />1,220 ft371.856 m <br />
Coordinates 37° 13' 42.33" N, 140° 25' 43.08" E
Runways
Designator Length Width Surface ROPS
1/19 2500 m8,202.1 ft <br /> 60 m196.85 ft <br /> ASP yes/yes


METAR
Observation RJSF 260600Z 35015KT 9999 FEW003 SCT005 BKN006 12/12 Q1014
Station Fukushima Airport
Date/Time 26 October 2021 06:00:00
Wind direction 350°
Wind speed 15 kts
Lowest cloud amount few clouds
Temperature 12°C
Dew point 12°C
Humidity 100%
QNH 1014 hPa
Weather condition n/a

Airport serving northern and central Fukushima Prefecture, Japan, located in the city of Sukagawa. The airport is located 19.4 km10.475 nm <br />19,400 m <br />63,648.294 ft <br /> southeast of Kōriyama.

Climatology

Humid Sub-tropical climate (Köppen climate classification Cfa)

Maps

Terrain

Loading map...

Airport Layout

Loading map...


Accidents & Serious Incidents at or in vicinity of RJSF

None on SKYbrary